Location: Augustenthal
(51.7167°N, 10.2833°E)
Time: 11:37:14
(UTC+00:00)

ISS - Pass Details

Date: 23 September 2021
Orbit: 418 x 423 km, 51.6° (Epoch: 19 October)

Event Time Altitude Azimuth Distance (km) Brightness Sun altitude
Rises 19:40:32 0° 273° (W) 2,366 1.1 -22.4°
Reaches altitude 10° 19:42:37 10° 273° (W) 1,503 -0.1 -22.7°
Enters shadow 19:45:04 45° 273° (W) 581 -2.8 -23.0°
